Jaen, Spain
Current Conditions -  °F | °C
As of 3:00 PM on Monday 24 Nov 2014 (Local Time) from LEGR Reporting Station
Scattered Clouds Scattered Clouds  
Wind Chill: 68°   Ceiling: Unl
Heat Index: 68°   Visibility: 6mi
Dew Point: 52°   Wind: 3mph
Humidity: 56%   Direction: 260°W
Pressure: 29.97"   Gusts: NA
Location:  37.77°N, 3.79°W
Report Text: LEGR 241400Z 26003KT 240V300 9999 FEW050 SCT095 20/11 Q1015
Loading
Personal Weather Stations






























Interactive Weather Map New forecast layout! Learn more

10-Day Weather Forecast

Advertisements
Track Severe Weather on mobile